User: anonymous
Location: Caltech
(34.1382°N, 118.1253°W)
Time: 14:13:12
(UTC-07:00)
Language:

Cosmos 1606 - Orbit

View from above orbital plane
View from above orbital plane
View from above satellite
View from above satellite

Ground track
Ground track

The orbit data is extracted from the following two-line orbital elements,

1 15369U 84111A   14292.69999704  .00004679  00000-0  27712-3 0  6557
2 15369 082.5331 355.9783 0020193 022.3053 337.9050 15.11009220633457
Epoch (UTC): 19 October 2014 16:47:59
Eccentricity: 0.0020193
inclination: 82.5331°
perigee height: 519 km
apogee height: 547 km
right ascension of ascending node: 355.9783°
argument of perigee: 22.3053°
revolutions per day: 15.11009220
mean anomaly at epoch: 337.9050°
orbit number at epoch: 63345

The dashed part of the orbit path shows where the satellite is in the earth's shadow,  

DLR